Home > Time Zones > World Clock > Weather > Norway > Oslo > Past weeks

Flag for Norway Weather past 2 weeks in Oslo, Norway

Now
39 °F

Light rain. Low clouds.


Feels Like: 39 °F
Forecast: 28 / 42 °F
Wind: 2 mph from South

Location: Oslo-Blindern

Current Time: Mar 29, 2015 at 11:41:00 PM

Latest Report: Mar 29, 2015 at 11:00 PM


Visibility: 34 mi

Pressure: 28.97 "Hg

Humidity: 91%

Dew point: 37 °F

Location of OsloLocation

Historic Weather in Oslo — Graph

°F

Oslo temperature yesterday

Maximum temperature yesterday: 45 °F (at 12:00 PM)
Minimum temperature yesterday: 30 °F (at 6:00 AM)
Average temperature yesterday: 37 °F

Past Weeks' High & Low Weather Summary

 TemperatureHumidityPressure
High51 °F (Mar 24, 2:00 PM)100% (Mar 20, 2:00 AM)30.89 "Hg (Mar 20, 2:00 AM)
Low27 °F (Mar 22, 2:00 AM)24% (Mar 21, 4:00 PM)28.97 "Hg (Mar 29, 10:00 PM)
Average38 °F75%30.12 "Hg
* Reported Mar 14 9:00 PM — Mar 29 10:00 PM, Oslo, Weather by CustomWeather, © 2015

Note: Actual official high and low records may vary slightly from our data, if they occured in-between our weather recording intervals... More about our weather records

Advertising

Oslo weather history for previous 24 hours

 ConditionsComfort  
Time TempWeatherWind HumidityBarometerVisibility
10:00 PM
Sun, Mar 29
40 °FQuite cool.2 mph87%28.97 "HgN/A
9:00 PM40 °FQuite cool.2 mph86%29.00 "HgN/A
8:00 PM42 °FOvercast.2 mph82%29.00 "Hg43 mi
7:00 PM43 °FQuite cool.2 mph80%29.00 "HgN/A
6:00 PM43 °FQuite cool.2 mph75%29.00 "HgN/A
5:00 PM45 °FScattered clouds.2 mph70%29.03 "Hg43 mi
4:00 PM43 °FQuite cool.2 mph77%29.06 "HgN/A
3:00 PM43 °FQuite cool.3 mph79%29.06 "HgN/A
2:00 PM40 °FSprinkles. Overcast.2 mph88%29.09 "Hg34 mi
1:00 PM39 °FChilly.2 mph89%29.09 "HgN/A
12:00 PM39 °FChilly.1 mph88%29.09 "HgN/A
11:00 AM37 °FChilly.2 mph92%29.12 "HgN/A
10:00 AM36 °FChilly.2 mph94%29.12 "HgN/A
9:00 AM35 °FChilly.3 mph95%29.15 "HgN/A
8:00 AM35 °FLight rain. Low clouds.3 mph97%29.18 "Hg2 mi
7:00 AM35 °FChilly.2 mph97%29.21 "HgN/A
6:00 AM35 °FChilly.1 mph97%29.23 "HgN/A
4:00 AM35 °FChilly.1 mph95%29.29 "HgN/A
3:00 AM35 °FChilly.2 mph94%29.35 "HgN/A
1:00 AM35 °FLight rain. Low clouds.2 mph94%29.41 "Hg6 mi
12:00 AM35 °FChilly.3 mph93%29.44 "HgN/A
11:00 PM
Sat, Mar 28
36 °FChilly.3 mph91%29.47 "HgN/A
Weather by CustomWeather, © 2015

See weather overviewHow to use our weather pages